This is the latest recevied weather packets stored in our database for station/object WB3IGR. If no packets are shown the sender has not sent any weather packets the latest 10 day(s).
| Time | Temp. | Humidity | Pressure | Rain* | Wind** | Luminosity | Snow |
|---|---|---|---|---|---|---|---|
| 1778172497 | 16.11° C | 44% | 1012.3 hPa | 0 mm | - | 685 W/m² | - |
| 1778172194 | 16.67° C | 48% | 1012.5 hPa | 0 mm | - | 658 W/m² | - |
| 1778171891 | 15.56° C | 45% | 1012.5 hPa | 0 mm | - | 707 W/m² | - |
| 1778171589 | 15.56° C | 47% | 1012.6 hPa | 0 mm | - | 729 W/m² | - |
| 1778171285 | 16.11° C | 45% | 1012.7 hPa | 0 mm | - | 716 W/m² | - |
| 1778170981 | 15.56° C | 46% | 1012.7 hPa | 0 mm | - | 740 W/m² | - |
| 1778170678 | 15.56° C | 50% | 1012.6 hPa | 0 mm | - | 740 W/m² | - |
| 1778170375 | 16.11° C | 49% | 1012.8 hPa | 0 mm | - | 738 W/m² | - |
| 1778170070 | 16.11° C | 49% | 1012.8 hPa | 0 mm | - | 731 W/m² | - |
| 1778169767 | 15° C | 49% | 1012.8 hPa | 0 mm | - | 719 W/m² | - |
| 1778169463 | 16.11° C | 52% | 1012.9 hPa | 0 mm | - | 724 W/m² | - |
| 1778169159 | 15.56° C | 48% | 1012.9 hPa | 0 mm | - | 707 W/m² | - |
| 1778168856 | 15.56° C | 49% | 1012.8 hPa | 0 mm | - | 698 W/m² | - |
| 1778168554 | 15.56° C | 51% | 1012.8 hPa | 0 mm | - | 701 W/m² | - |
| 1778168250 | 15° C | 53% | 1013 hPa | 0 mm | - | 713 W/m² | - |
| 1778167946 | 15.56° C | 50% | 1013.2 hPa | 0 mm | - | 704 W/m² | - |
| 1778167643 | 14.44° C | 51% | 1013.2 hPa | 0 mm | - | 679 W/m² | - |
| 1778167339 | 14.44° C | 54% | 1013.5 hPa | 0 mm | - | 683 W/m² | - |
| 1778167035 | 14.44° C | 53% | 1013.6 hPa | 0 mm | - | 674 W/m² | - |
| 1778166732 | 14.44° C | 51% | 1013.7 hPa | 0 mm | - | 675 W/m² | - |
| 1778166429 | 13.89° C | 53% | 1013.6 hPa | 0 mm | - | 678 W/m² | - |
| 1778166126 | 14.44° C | 55% | 1013.6 hPa | 0 mm | - | 626 W/m² | - |
| 1778165821 | 13.33° C | 58% | 1013.6 hPa | 0 mm | - | 674 W/m² | - |
| 1778165518 | 13.89° C | 58% | 1013.8 hPa | 0 mm | - | 702 W/m² | - |
| 1778165215 | 13.89° C | 55% | 1013.8 hPa | 0 mm | - | 325 W/m² | - |
* Rain latest hour (hover to see other rain measurements)
** Current wind speed in m/s (hover to see current wind gust speed)